This demonstration page uses our WeatherBlox Daily Observations layout. Learn more.

Left ArrowRight Arrow

Hourly Observations for May 14, 2018

Temp ( °F °C ) Dew Point ( °F °C ) Humidity (%) Winds ( mph kmh ) Pressure ( in mb ) Visibility ( mi km ) Precip ( " mm )
12:53 am 00:53 Clear with Mist and Fog 68 20 68 20 100 100 Calm 29.95 1014 3 5 0.00 0.00
1:02 am 01:02 Clear with Mist and Fog 68 20 67 19.4 96 96 Calm 29.97 1015 3 4 0.00 0.00
1:09 am 01:09 Clear with Mist and Fog 68 20 67 19.4 96 96 Calm 29.97 1015 4 6 0.00 0.00
1:29 am 01:29 Clear with Mist and Fog 67 19.4 67 19.4 100 100 Calm 29.97 1015 2 3 0.00 0.00
1:32 am 01:32 Clear with Mist and Fog 67 19.4 66 18.9 97 97 Calm 29.97 1015 1 1 0.00 0.00
1:51 am 01:51 Clear with Mist and Fog 66 19 66 19 100 100 Calm 29.97 1015 2 3 0.00 0.00
1:53 am 01:53 Clear with Mist and Fog 67 19.4 66 18.9 97 97 Calm 29.97 1015 3 4 0.00 0.00
2:00 am 02:00 Clear with Mist and Fog 67 19.4 66 18.9 97 97 Calm 29.97 1015 2 2 0.00 0.00
2:10 am 02:10 Clear with Fog 66 18.9 66 18.9 100 100 Calm 29.97 1015 1 1 0.00 0.00
2:31 am 02:31 Clear with Mist and Fog 65 18.3 64 17.8 97 97 Calm 29.97 1015 1 2 0.00 0.00
2:42 am 02:42 Clear with Mist and Fog 66 18.9 65 18.3 96 96 Calm 29.97 1015 2 3 0.00 0.00
2:53 am 02:53 Clear with Mist and Fog 66 18.9 65 18.3 96 96 Calm 29.97 1015 3 5 0.00 0.00
3:03 am 03:03 Clear with Mist and Fog 66 18.9 65 18.3 96 96 Calm 30.00 1016 3 4 0.00 0.00
3:21 am 03:21 Clear with Mist and Fog 66 18.9 65 18.3 96 96 Calm 30.00 1016 2 3 0.00 0.00
3:28 am 03:28 Clear with Mist and Fog 66 18.9 65 18.3 96 96 Calm 30.00 1016 3 4 0.00 0.00
3:42 am 03:42 Clear with Mist and Fog 66 18.9 65 18.3 96 96 Calm 30.00 1016 4 6 0.00 0.00
3:53 am 03:53 Clear with Mist and Fog 66 18.9 65 18.3 96 96 Calm 29.97 1015 5 8 0.00 0.00
4:25 am 04:25 Clear with Mist and Fog 66 18.9 65 18.3 96 96 Calm 30.00 1016 2 3 0.00 0.00
4:53 am 04:53 Clear with Mist and Fog 65 18.3 64 17.8 97 97 Calm 29.98 1015 2 3 0.00 0.00
4:57 am 04:57 Clear with Mist and Fog 65 18.3 64 17.8 97 97 Calm 30.00 1016 1 1 0.00 0.00
5:53 am 05:53 Clear with Mist and Fog 64 17.8 63 17.2 96 96 Calm 29.97 1015 1 1 0.00 0.00
6:06 am 06:06 Clear with Mist and Fog 63 17.2 62 16.7 97 97 Calm 29.97 1015 2 3 0.00 0.00
6:08 am 06:08 Clear with Mist and Fog 63 17.2 62 16.7 97 97 Calm 29.97 1015 3 5 0.00 0.00
6:16 am 06:16 Clear with Mist and Fog 63 17.2 63 17.2 100 100 Calm 29.97 1015 1 2 0.00 0.00
6:24 am 06:24 Clear with Mist and Fog 64 17.8 63 17.2 96 96 Calm 30.00 1016 1 1 0.00 0.00
6:32 am 06:32 Sunny with Mist and Fog 65 18.3 63 17.2 93 93 Calm 30.00 1016 1 2 0.00 0.00
6:50 am 06:50 Sunny with Mist and Fog 63 17 63 17 100 100 Calm 30.00 1016 2 3 0.00 0.00
6:53 am 06:53 Sunny with Mist and Fog 64 17.8 63 17.2 96 96 Calm 29.97 1015 3 4 0.00 0.00
7:08 am 07:08 Sunny with Mist and Fog 65 18.3 64 17.8 97 97 Calm 30.00 1016 2 2 0.00 0.00
7:15 am 07:15 Sunny with Mist and Fog 65 18.3 64 17.8 97 97 Calm 30.00 1016 2 3 0.00 0.00
7:25 am 07:25 Sunny with Mist and Fog 66 18.9 65 18.3 96 96 Calm 30.00 1016 3 5 0.00 0.00
7:53 am 07:53 Sunny with Mist and Fog 69 20.6 67 19.4 93 93 Calm 29.98 1015 4 6 0.00 0.00
8:53 am 08:53 Sunny 74 23.3 68 20 82 82 VRB 3 6 30.00 1016 7 11 0.00 0.00
9:53 am 09:53 Sunny 78 25.6 68 20 71 71 WSW 6 9 30.00 1016 10 16 0.00 0.00
10:53 am 10:53 Sunny 83 28.3 69 20.6 63 63 SW 5 7 30.00 1016 10 16 0.00 0.00
11:53 am 11:53 Partly Cloudy 87 30.6 68 20 53 53 WSW 7 11 30.00 1016 10 16 0.00 0.00
12:53 pm 12:53 Partly Cloudy 88 31.1 67 19.4 50 50 NNW 7 11 29.99 1016 10 16 0.00 0.00
1:36 pm 13:36 Mostly Cloudy 84 28.9 67 19.4 57 57 NNE 18 30 29.97 1015 10 16 0.00 0.00
1:53 pm 13:53 Mostly Cloudy with Light Rain 83 28.3 65 18.3 55 55 NNE 16 26 30.00 1016 10 16 0.00 0.03
2:53 pm 14:53 Sunny 85 29.4 65 18.3 51 51 NE 10 17 29.96 1015 10 16 0.00 0.03
3:53 pm 15:53 Sunny 87 30.6 66 18.9 50 50 E 7 11 29.93 1014 10 16 0.00 0.00
4:53 pm 16:53 Sunny 87 30.6 67 19.4 51 51 VRB 5 7 29.90 1012 10 16 0.00 0.00
5:53 pm 17:53 Partly Cloudy 87 30.6 68 20 53 53 VRB 3 6 29.88 1012 10 16 0.00 0.00
6:53 pm 18:53 Mostly Sunny 87 30.6 63 17.2 45 45 SSW 8 13 29.86 1011 10 16 0.00 0.03
7:53 pm 19:53 Sunny 86 30 62 16.7 45 45 undefined N/A 29.84 1011 10 16 0.00 0.00
8:53 pm 20:53 Clear 83 28.3 61 16.1 48 48 SSW 6 9 29.85 1011 10 16 0.00 0.00
9:53 pm 21:53 Clear 81 27.2 63 17.2 54 54 WSW 5 7 29.88 1012 10 16 0.00 0.00
10:53 pm 22:53 Clear 77 25 64 17.8 64 64 SW 3 6 29.88 1012 10 16 0.00 0.00
11:53 pm 23:53 Clear 75 23.9 64 17.8 69 69 SSW 5 7 29.87 1012 10 16 0.00 0.00

Powered by AerisWeather